Theta_e
311 314 316 316 308 307 310 310 315 316 317 316 317 322 324 320 324 325 310 311 312 315 317 319 317 317 320 322 325 327 327 327 328 330 330 330 330 331 331 332 333 334 334 337 337 336 336 336 335
312 314 316 315 307 309 305 310 317 315 314 313 313 313 315 318 315 310 308 310 310 314 315 317 316 318 320 322 323 326 323 320 323 324 325 327 329 330 331 331 331 331 333 334 335 335 336 335 336
314 315 315 311 305 307 308 311 314 312 312 312 310 311 312 309 310 309 309 310 307 312 314 316 317 317 319 321 316 317 315 313 313 315 319 322 323 327 329 330 331 331 331 331 333 333 334 334 335
314 315 313 311 312 309 309 315 312 310 311 312 311 309 307 307 308 309 308 307 305 310 313 312 312 312 312 312 311 309 309 308 308 309 312 312 315 319 323 327 330 330 331 331 330 332 333 333 334
315 314 309 309 309 310 311 314 313 310 311 310 311 309 305 304 307 308 307 304 303 307 308 307 307 306 306 306 306 306 307 306 304 304 307 308 307 309 312 316 321 326 329 330 331 330 331 331 331
314 311 310 310 309 310 315 314 313 312 310 308 309 304 303 303 304 305 305 303 302 305 303 304 303 304 304 304 303 303 302 302 303 300 300 303 304 305 305 306 308 313 318 324 328 330 330 331 331
312 308 309 310 310 313 314 314 312 310 308 309 309 304 301 300 301 304 302 301 300 300 301 302 302 300 300 300 300 300 299 298 298 299 299 297 298 301 301 302 303 306 306 309 314 322 327 329 331
315 310 313 310 310 311 313 314 313 312 309 310 310 304 301 301 299 300 300 300 300 298 298 299 299 298 298 298 297 297 297 296 296 297 297 297 297 297 297 298 299 300 301 303 304 307 312 320 326
315 312 312 312 311 312 312 311 309 309 308 307 307 306 306 304 299 298 298 297 298 297 297 297 297 296 296 297 296 296 296 296 296 296 296 296 296 297 296 297 297 298 298 299 300 301 302 306 310
312 310 311 309 311 313 311 310 307 307 304 304 304 305 304 302 300 299 299 300 299 298 297 296 296 296 296 296 295 295 295 295 295 295 295 295 296 296 296 295 296 296 297 297 298 299 299 300 302
312 312 308 312 312 311 311 309 308 306 304 307 307 306 303 300 299 298 299 300 302 300 297 296 295 295 295 294 295 294 294 294 295 295 295 295 295 295 295 295 294 295 295 295 295 296 297 298 298
312 311 312 312 312 311 309 309 305 306 310 311 311 310 306 302 301 300 299 299 298 296 295 294 293 293 294 293 294 294 294 294 294 294 294 294 294 294 294 294 293 294 294 294 294 294 295 296 297
310 311 311 311 311 310 309 307 307 307 310 310 309 307 306 304 302 300 299 299 297 295 294 293 293 293 293 292 292 292 292 292 292 292 292 293 293 293 293 292 292 292 292 293 293 293 294 294 294
310 309 309 309 309 308 307 307 307 309 310 308 306 307 305 304 303 300 298 298 296 296 294 293 292 291 291 291 291 291 291 291 291 291 291 290 290 291 291 291 292 291 291 291 292 292 292 293 293
308 308 306 306 307 306 306 305 304 307 307 306 304 305 304 302 301 301 300 298 298 296 294 292 291 291 291 290 290 290 290 290 290 289 289 289 289 288 289 289 289 290 290 290 290 290 290 291 292
307 306 306 305 304 305 306 304 304 304 305 302 302 302 302 301 301 300 299 298 297 295 293 292 291 291 290 290 289 289 289 289 289 289 289 289 288 288 287 287 287 287 287 287 288 289 290 291 291
304 303 304 305 305 304 303 305 302 302 301 301 301 301 301 300 299 298 299 298 296 295 294 291 291 290 290 289 289 289 289 289 289 288 288 288 287 287 287 286 286 286 285 286 286 286 287 288 289
303 304 304 304 305 303 303 303 303 301 300 302 302 301 299 299 300 299 297 296 295 293 293 291 290 289 289 289 289 289 288 288 288 287 287 287 286 286 286 286 286 286 286 286 286 286 285 286 286
303 303 305 304 303 305 304 304 305 302 298 298 300 301 299 298 298 297 296 295 294 293 292 291 289 289 289 289 288 288 287 287 287 287 287 286 286 286 285 285 285 285 285 285 285 285 285 285 286
302 302 301 300 298 303 301 300 301 301 299 301 301 300 299 296 295 294 294 294 294 293 292 291 289 289 289 288 288 288 287 287 287 287 286 286 286 285 285 285 285 285 285 284 284 284 284 284 284
298 299 299 301 296 296 294 298 296 297 296 299 300 301 299 297 296 294 293 294 294 293 292 290 289 289 288 288 287 287 287 287 286 286 285 285 285 284 284 284 284 284 284 284 284 284 284 284 283
298 297 297 297 297 298 295 305 304 301 302 296 294 297 300 296 294 294 293 293 293 292 291 290 289 288 287 287 287 287 286 286 286 285 284 284 284 284 283 283 283 284 284 283 283 283 283 283 283
299 294 295 295 294 298 299 302 309 299 303 294 290 293 297 296 295 293 293 293 292 292 290 289 288 287 287 287 287 286 286 285 285 284 284 284 283 283 283 283 283 283 283 283 283 283 283 283 283
293 294 294 293 296 299 300 306 307 301 297 291 288 293 295 295 293 293 291 291 291 291 290 289 288 287 287 286 286 286 286 285 285 284 283 283 283 282 282 282 282 282 282 282 282 282 282 282 283
294 298 308 310 298 309 296 299 303 296 288 286 286 289 293 293 292 291 290 290 290 290 289 289 288 287 287 286 286 286 285 285 284 283 283 283 282 282 282 282 281 281 281 281 282 282 282 282 282
293 297 306 313 306 303 295 295 300 287 285 287 290 291 291 291 291 291 291 290 290 289 289 289 288 287 286 286 286 285 285 284 284 283 283 282 282 281 281 281 281 281 281 281 281 281 282 282 282
294 293 294 300 300 304 303 301 298 294 290 287 290 290 290 291 291 291 291 290 290 289 289 288 287 286 286 286 286 285 284 283 283 283 282 281 281 281 281 280 280 280 280 280 281 281 281 281 282
293 296 303 301 305 308 307 299 301 293 296 293 289 290 291 291 290 289 290 290 289 289 288 287 287 286 286 286 285 284 284 283 283 282 281 281 280 280 280 280 280 280 280 280 280 281 281 281 282
292 295 298 298 301 305 303 297 290 294 294 293 291 291 292 291 290 289 288 288 288 288 288 287 286 286 286 285 284 284 283 283 281 281 280 280 280 280 280 280 280 280 280 280 280 281 281 281 281
296 298 298 303 303 302 303 301 281 288 290 290 290 291 291 293 292 290 289 288 288 288 287 287 286 286 285 284 284 283 283 281 280 280 279 279 280 279 280 280 280 280 280 280 280 280 281 281 281
Wind_Speed
6 8 6 5 2 4 4 7 3 4 3 5 9 6 7 5 6 5 11 22 30 28 24 22 14 11 13 12 7 7 8 8 7 7 5 5 7 8 8 8 7 7 8 9 9 8 10 11 7
6 9 8 2 4 0 6 4 8 7 5 14 11 6 3 5 5 4 18 25 30 27 23 21 16 14 13 12 10 10 7 7 7 7 6 5 4 4 6 8 8 7 6 7 7 7 5 7 12
8 10 4 4 4 6 6 6 4 3 17 6 4 3 4 3 8 6 13 28 30 26 22 19 17 16 14 13 9 8 7 5 5 6 6 6 7 6 5 5 7 9 8 7 6 8 7 7 9
7 6 2 3 8 7 6 4 7 9 9 5 4 2 3 6 4 14 20 27 29 26 21 15 16 14 13 11 9 7 7 7 6 6 6 6 7 8 7 8 8 8 10 11 11 11 9 11 12
9 4 2 3 7 5 4 4 20 7 8 9 11 3 3 7 11 14 25 27 27 25 22 17 13 12 12 11 10 9 8 6 5 5 6 6 6 5 8 8 10 11 10 10 12 13 13 13 13
4 2 1 6 6 5 2 9 13 6 6 8 8 7 4 9 15 19 24 26 25 25 23 19 15 14 13 12 11 10 9 7 6 2 3 5 7 8 6 8 10 11 12 13 13 13 14 15 15
4 3 5 4 4 4 5 14 8 10 10 8 6 7 5 15 18 20 24 25 25 25 23 21 18 18 15 13 11 9 7 6 4 4 4 1 2 7 8 10 10 12 12 13 13 14 14 14 15
4 3 3 5 4 7 6 16 6 15 9 8 13 8 7 25 24 23 25 25 25 25 24 22 18 15 14 12 11 7 5 4 3 3 3 4 5 5 6 8 9 10 13 14 14 14 15 15 16
5 0 4 5 6 4 8 5 6 6 8 13 15 8 7 20 28 28 28 27 27 27 25 23 21 18 15 12 9 9 8 7 6 5 5 5 6 6 6 7 9 9 10 12 14 14 16 17 17
6 4 10 6 3 3 6 5 10 4 6 8 12 15 12 24 31 34 36 34 31 30 27 24 22 19 17 15 12 10 8 6 5 5 5 6 6 6 6 6 7 8 9 9 11 13 15 16 17
6 6 5 5 7 4 4 4 10 7 6 15 21 25 21 28 32 34 34 33 32 28 27 25 23 21 18 15 13 11 9 8 7 6 5 5 6 6 6 6 6 6 7 7 7 8 10 12 13
4 11 7 3 7 5 5 5 7 18 10 8 20 20 26 32 35 36 36 34 31 30 27 26 23 20 18 15 13 12 10 9 8 8 7 6 6 7 7 7 7 6 6 7 7 7 7 8 10
5 4 6 8 9 9 7 10 10 20 31 27 14 20 29 33 34 35 34 33 32 31 28 25 23 21 18 15 13 11 10 9 8 7 6 6 7 7 7 7 7 7 7 7 7 7 8 8 8
2 3 5 7 9 10 6 3 6 18 19 28 24 24 28 33 35 36 37 37 36 32 29 26 23 21 18 16 13 10 8 6 5 4 4 3 3 4 5 6 6 7 8 8 7 8 8 8 8
2 5 5 8 7 5 7 5 12 21 14 22 25 26 29 33 35 38 36 38 37 33 30 28 25 21 18 15 13 10 7 5 4 4 4 5 5 5 4 5 5 6 6 8 9 9 10 9 9
3 1 3 1 6 3 8 7 7 9 17 21 25 27 31 35 36 37 37 37 37 34 31 28 26 23 20 16 13 11 8 6 5 5 5 6 6 6 7 8 8 9 9 9 9 9 10 10 10
2 6 6 8 9 4 6 5 1 4 14 18 25 30 34 35 37 39 38 38 37 35 31 29 26 24 21 18 15 12 10 8 7 6 6 6 5 5 7 9 10 11 12 12 13 14 14 13 11
7 6 5 6 4 5 5 15 11 9 14 23 28 34 37 40 43 40 39 38 37 34 30 28 27 25 22 19 16 13 10 8 6 6 6 6 6 7 8 9 10 10 12 13 14 14 15 16 15
2 4 6 5 4 4 9 13 16 11 18 20 30 36 40 42 37 38 38 38 38 35 32 31 29 27 23 20 17 14 11 8 7 6 6 7 7 9 9 9 10 11 12 13 14 14 14 15 17
6 6 11 6 2 6 7 14 13 13 10 27 34 35 30 28 31 35 39 39 39 36 34 33 29 26 23 19 16 13 10 7 6 7 7 8 9 10 9 9 10 10 10 11 12 12 13 14 17
5 6 5 9 4 4 6 11 7 7 18 30 31 23 23 33 37 38 40 42 42 40 38 33 30 27 23 19 16 14 11 9 7 7 8 9 10 10 10 10 10 10 11 11 12 13 13 14 14
6 5 2 1 2 5 1 10 4 6 9 4 10 10 21 29 32 37 41 44 44 41 36 32 29 27 23 20 16 13 10 7 7 8 8 10 10 10 11 11 11 11 11 11 12 13 13 13 13
4 3 2 2 2 4 3 1 3 2 8 4 9 14 14 28 32 37 40 43 44 41 36 32 29 26 23 20 16 12 9 8 8 8 9 10 11 11 11 11 12 12 13 13 14 13 13 13 13
4 4 4 4 2 3 9 8 5 4 3 3 5 12 12 24 29 31 34 39 45 39 36 32 30 27 24 20 16 12 9 9 9 10 10 11 11 11 12 12 13 14 14 14 14 14 14 15 14
2 4 3 3 1 7 1 3 8 4 3 2 5 10 9 20 25 29 34 40 44 41 38 34 32 30 26 21 17 13 11 10 10 11 12 12 12 12 12 13 14 15 15 15 16 16 17 17 16
3 4 4 6 2 4 3 6 5 5 5 6 6 3 7 16 20 26 31 36 40 40 39 36 33 30 26 21 17 14 12 11 11 13 13 13 14 14 13 14 15 15 16 16 17 17 17 17 17
0 3 1 1 4 2 3 6 5 2 5 6 11 5 6 11 18 24 28 32 36 39 39 36 34 30 26 21 18 14 12 11 12 14 15 14 15 15 15 15 15 16 17 17 18 18 18 18 18
2 2 1 2 4 5 2 4 4 3 5 2 2 3 7 10 17 22 27 30 32 36 37 34 31 28 24 21 17 13 11 12 14 15 14 14 14 14 15 16 16 17 17 17 17 18 18 19 18
3 2 2 2 2 3 2 6 5 4 2 1 4 4 5 8 14 20 25 27 29 33 35 32 29 26 23 19 15 12 12 13 13 13 12 12 13 14 15 16 17 17 17 17 17 18 19 19 19
2 5 6 3 3 3 2 6 0 4 3 4 8 4 6 7 11 18 22 25 29 32 34 31 30 26 21 16 13 12 12 12 12 11 11 12 13 14 15 17 17 18 19 18 18 19 18 19 19
Wind_Direction
192 189 179 173 57 60 234 243 145 156 200 196 159 168 188 154 171 199 166 168 168 172 178 190 163 176 215 236 240 248 188 184 206 222 222 204 198 190 190 190 184 185 171 155 162 174 152 143 138
190 190 181 169 105 201 262 239 205 197 166 147 150 128 153 208 192 176 163 164 168 174 178 187 183 195 212 222 222 223 196 171 186 199 183 181 190 197 202 211 216 209 207 205 187 180 150 175 160
182 185 171 136 152 203 224 217 201 81 149 137 124 176 186 223 205 187 170 167 170 175 178 181 193 198 199 202 174 194 175 169 167 194 207 191 186 200 189 213 226 226 214 222 220 223 194 189 179
179 178 95 130 226 253 210 187 146 124 185 222 185 169 212 201 172 173 168 170 171 174 175 166 171 171 166 163 166 146 144 156 157 189 221 223 193 191 205 205 207 216 230 224 221 217 217 229 227
191 170 168 237 245 258 235 178 163 163 167 185 183 205 223 199 180 175 169 171 175 175 176 165 143 141 142 144 148 161 189 198 183 180 229 253 271 221 203 208 214 216 222 233 237 235 225 229 238
184 138 115 235 242 259 262 180 166 157 164 157 174 155 216 198 190 174 173 174 178 185 181 173 153 142 138 138 150 178 186 202 235 232 221 235 260 274 269 241 230 228 228 226 232 235 243 237 241
151 112 224 232 249 273 226 169 177 173 167 208 184 158 206 192 188 182 178 180 181 185 188 187 184 174 159 165 176 187 185 197 207 235 280 287 243 263 266 265 256 251 246 239 234 235 238 241 243
202 127 259 245 209 257 190 169 205 176 203 186 187 194 211 194 185 185 185 186 187 188 190 192 193 189 187 188 189 187 186 194 208 228 247 280 291 283 263 266 266 263 256 250 244 241 241 240 242
178 90 237 242 181 243 163 178 175 202 165 186 196 202 216 190 185 186 188 191 193 193 195 195 196 196 197 198 195 189 191 197 207 224 241 254 262 272 274 274 276 270 262 260 258 250 245 241 243
170 180 219 211 197 224 192 189 175 180 197 219 217 213 208 189 191 193 194 195 195 195 195 196 198 199 200 201 200 201 210 219 232 236 236 242 250 256 266 276 275 272 270 266 259 258 252 244 242
195 222 206 238 222 204 196 215 182 170 225 219 221 208 200 194 197 202 203 205 201 196 198 196 197 197 199 201 203 203 205 214 226 239 249 258 266 270 269 273 276 276 278 272 264 250 245 241 241
228 241 217 209 211 193 191 182 204 209 229 242 242 232 206 202 205 206 206 203 200 197 196 197 196 198 198 200 203 205 208 214 218 223 230 238 248 260 272 277 277 273 269 276 280 277 270 255 247
228 247 222 227 225 228 214 217 220 245 238 245 239 214 211 209 210 209 209 204 201 200 197 198 198 198 198 199 202 205 205 204 209 215 221 231 245 256 268 277 285 290 291 284 279 281 283 276 267
314 272 266 256 240 234 216 264 181 262 249 239 234 216 215 213 211 208 206 205 203 201 199 198 196 196 197 198 202 206 210 215 222 235 249 264 265 268 270 276 285 295 303 303 301 295 289 282 279
302 308 306 231 221 236 198 253 229 244 234 217 215 216 216 216 213 216 213 206 206 202 200 198 197 195 196 197 199 204 215 228 249 272 297 308 321 324 319 312 310 310 310 313 314 314 307 301 299
326 146 283 318 140 213 161 273 258 242 217 212 215 219 220 218 218 217 215 211 207 203 199 199 198 195 196 196 199 201 209 220 243 268 285 296 316 330 340 343 344 344 340 334 327 318 310 313 313
268 254 219 310 192 134 186 269 69 226 209 226 225 225 224 222 218 218 215 212 209 203 201 200 197 197 196 197 200 204 212 224 241 264 283 300 307 316 329 336 342 345 345 342 344 342 335 332 326
215 230 241 236 199 180 207 254 264 231 208 231 234 231 227 226 223 217 213 211 207 204 203 204 200 197 197 199 201 204 210 221 236 255 277 292 299 308 319 327 331 333 333 335 337 341 341 341 340
185 217 243 249 184 175 237 246 258 229 214 234 234 230 228 224 219 216 213 210 204 203 204 205 202 198 200 200 201 202 208 219 236 258 273 285 293 304 315 320 324 328 330 332 333 335 337 337 339
247 262 265 277 148 191 279 270 258 255 222 226 233 230 222 208 208 210 206 205 204 204 205 205 203 203 200 201 203 209 216 230 253 268 276 277 284 296 306 312 315 318 323 328 329 331 337 344 350
230 213 232 250 333 236 318 273 237 270 245 248 246 248 227 211 203 204 204 204 202 204 204 203 202 202 202 202 206 210 216 225 240 260 272 280 290 296 300 302 305 310 315 318 323 325 327 334 344
261 232 183 179 73 243 358 291 231 256 278 51 4 255 218 197 201 207 204 202 201 204 204 203 202 201 201 203 205 211 218 231 252 264 271 277 282 286 290 294 298 302 304 307 310 312 315 320 327
243 52 83 67 110 357 204 253 243 3 260 359 347 355 194 195 200 200 206 206 200 204 201 200 201 202 204 205 206 212 219 232 251 265 270 272 276 279 282 287 292 296 299 299 299 300 303 306 309
136 79 61 58 77 279 193 178 273 204 247 322 333 15 173 188 194 199 201 201 200 202 199 199 201 202 204 205 208 213 227 243 259 270 272 271 272 275 279 283 286 288 290 291 293 294 296 297 295
105 91 311 287 7 249 84 111 258 328 348 249 296 332 183 189 190 192 195 198 201 198 196 199 202 202 203 205 209 216 233 248 264 274 274 273 273 273 274 279 280 281 282 283 284 285 287 289 290
193 181 183 249 252 294 9 232 257 224 285 312 341 56 170 189 195 200 202 203 203 198 198 200 201 203 204 205 208 220 236 249 268 275 274 273 271 272 274 276 278 280 282 283 283 283 282 282 283
107 191 349 10 187 242 219 287 334 15 28 19 28 48 169 195 206 208 207 210 207 202 201 204 202 203 204 205 211 225 241 258 271 271 268 267 268 271 275 278 281 284 285 285 284 281 279 278 279
319 44 46 160 261 240 225 262 222 330 33 32 11 191 200 207 213 217 217 213 210 206 203 203 205 206 206 209 215 231 242 261 267 263 260 261 264 269 273 278 281 284 286 286 283 280 277 277 278
144 184 205 318 223 266 301 274 224 157 182 337 305 257 239 229 224 221 220 216 211 207 205 204 204 205 208 213 225 235 247 260 257 254 254 258 264 270 274 278 282 285 287 288 284 280 276 277 277
100 179 179 211 207 234 266 261 297 174 189 230 261 231 217 238 233 222 217 213 209 207 205 204 203 204 209 219 231 245 258 264 259 256 260 264 270 271 277 281 285 288 291 290 287 281 276 277 280